IGO6004 VIPT-VILH

Flight info

Callsign IGO6004
Flight time 1h 34m
Altitude 36000
Route ALI DCT DPN DCT IGINO DCT ELKUX/N0463F350
Aircraft A320/M-SDE3FGHIRWY/LB1

Departure

Time 2026-04-26 12:32
Airport Pantnagar Airport (VIPT)

Arrival

Time 2026-04-26 14:06
Airport Leh Kushok Bakula Rimpochee Airport (VILH)
Time Latitude Longitude Altitude Speed Heading
2026-04-26 11:38 29.03173 79.47389 776 ft 0 kts 191°
2026-04-26 12:17 29.03172 79.47389 776 ft 1 kts 191°
2026-04-26 12:17 29.03152 79.47384 776 ft 4 kts 195°
2026-04-26 12:18 29.03151 79.47383 776 ft 2 kts 195°
2026-04-26 12:18 29.03150 79.47383 776 ft 1 kts 200°
2026-04-26 12:18 29.03148 79.47371 776 ft 3 kts 259°
2026-04-26 12:18 29.03171 79.47349 776 ft 6 kts 353°
2026-04-26 12:19 29.03218 79.47359 776 ft 4 kts 11°
2026-04-26 12:19 29.03224 79.47360 776 ft 0 kts 11°
2026-04-26 12:20 29.03227 79.47361 776 ft 1 kts 11°
2026-04-26 12:20 29.03237 79.47363 776 ft 0 kts 11°
2026-04-26 12:22 29.03238 79.47363 776 ft 0 kts 11°
2026-04-26 12:28 29.03240 79.47364 776 ft 1 kts 11°
2026-04-26 12:28 29.03259 79.47368 777 ft 8 kts 11°
2026-04-26 12:28 29.03317 79.47391 780 ft 8 kts 47°
2026-04-26 12:28 29.03316 79.47496 779 ft 21 kts 99°
2026-04-26 12:29 29.03290 79.47693 782 ft 26 kts 98°
2026-04-26 12:29 29.03284 79.47875 778 ft 17 kts 73°
2026-04-26 12:29 29.03268 79.47876 778 ft 0 kts 277°
2026-04-26 12:31 29.03268 79.47869 778 ft 6 kts 277°
2026-04-26 12:31 29.03312 79.47515 779 ft 86 kts 278°
2026-04-26 12:31 29.03441 79.46584 827 ft 144 kts 277°
2026-04-26 12:32 29.03621 79.45426 1364 ft 150 kts 279°
2026-04-26 12:32 29.03787 79.44223 2000 ft 157 kts 280°
2026-04-26 12:32 29.04024 79.41617 3132 ft 165 kts 278°
2026-04-26 12:33 29.04117 79.40300 3538 ft 167 kts 278°
2026-04-26 12:33 29.04209 79.38973 3951 ft 169 kts 278°
2026-04-26 12:33 29.04302 79.37555 4074 ft 189 kts 278°
2026-04-26 12:33 29.04417 79.35960 4136 ft 215 kts 278°
2026-04-26 12:34 29.04557 79.34154 4317 ft 240 kts 278°
2026-04-26 12:34 29.04715 79.32202 4752 ft 253 kts 278°
2026-04-26 12:34 29.04890 79.30168 5415 ft 257 kts 278°
2026-04-26 12:34 29.05070 79.28142 6246 ft 255 kts 278°
2026-04-26 12:35 29.05247 79.26134 7019 ft 253 kts 278°
2026-04-26 12:35 29.05176 79.24124 7628 ft 265 kts 258°
2026-04-26 12:35 29.04251 79.22253 8268 ft 282 kts 232°
2026-04-26 12:35 29.02680 79.20832 8971 ft 290 kts 223°
2026-04-26 12:36 29.01067 79.19448 9636 ft 293 kts 224°
2026-04-26 12:36 28.99445 79.18021 10273 ft 295 kts 224°
2026-04-26 12:36 28.97843 79.16542 10930 ft 296 kts 226°
2026-04-26 12:36 28.96229 79.15049 11407 ft 307 kts 223°
2026-04-26 12:37 28.94459 79.13517 11536 ft 329 kts 221°
2026-04-26 12:37 28.92561 79.11916 11663 ft 349 kts 221°
2026-04-26 12:37 28.90563 79.10227 11786 ft 366 kts 221°
2026-04-26 12:37 28.88476 79.08449 11927 ft 382 kts 220°
2026-04-26 12:38 28.86333 79.06612 12296 ft 389 kts 220°
2026-04-26 12:38 28.84159 79.04739 12771 ft 393 kts 220°
2026-04-26 12:38 28.81970 79.02845 13257 ft 397 kts 220°
2026-04-26 12:38 28.79757 79.00925 13724 ft 400 kts 220°
2026-04-26 12:39 28.77539 78.99001 14204 ft 403 kts 220°
2026-04-26 12:39 28.75303 78.97061 14691 ft 405 kts 220°
2026-04-26 12:39 28.73055 78.95110 15171 ft 407 kts 220°
2026-04-26 12:39 28.70825 78.93174 15641 ft 409 kts 220°
2026-04-26 12:40 28.68524 78.91179 16121 ft 412 kts 220°
2026-04-26 12:40 28.66235 78.89198 16583 ft 414 kts 220°
2026-04-26 12:40 28.63961 78.87231 17052 ft 417 kts 220°
2026-04-26 12:40 28.61644 78.85231 17527 ft 419 kts 220°
2026-04-26 12:41 28.59313 78.83220 17977 ft 422 kts 220°
2026-04-26 12:41 28.56969 78.81196 18354 ft 424 kts 220°
2026-04-26 12:41 28.54609 78.79160 18737 ft 427 kts 220°
2026-04-26 12:41 28.52233 78.77112 19115 ft 430 kts 220°
2026-04-26 12:42 28.49842 78.75052 19507 ft 432 kts 220°
2026-04-26 12:42 28.47434 78.72976 19869 ft 435 kts 220°
2026-04-26 12:42 28.45016 78.70890 20242 ft 438 kts 220°
2026-04-26 12:42 28.42572 78.68784 20625 ft 441 kts 220°
2026-04-26 12:43 28.40121 78.66674 20988 ft 444 kts 220°
2026-04-26 12:43 28.37656 78.64555 21332 ft 447 kts 220°
2026-04-26 12:43 28.35166 78.62416 21685 ft 449 kts 220°
2026-04-26 12:43 28.32657 78.60265 22013 ft 452 kts 220°
2026-04-26 12:44 28.30142 78.58112 22352 ft 454 kts 220°
2026-04-26 12:44 28.27606 78.55943 22688 ft 457 kts 220°
2026-04-26 12:44 28.25067 78.53772 23015 ft 459 kts 220°
2026-04-26 12:44 28.22505 78.51582 23313 ft 461 kts 220°
2026-04-26 12:45 28.19942 78.49386 23585 ft 463 kts 220°
2026-04-26 12:45 28.17398 78.47203 23856 ft 465 kts 220°
2026-04-26 12:45 28.14811 78.44987 24151 ft 466 kts 220°
2026-04-26 12:45 28.12222 78.42771 24439 ft 468 kts 220°
2026-04-26 12:46 28.09619 78.40551 24720 ft 470 kts 220°
2026-04-26 12:46 28.06998 78.38321 25037 ft 471 kts 220°
2026-04-26 12:46 28.04381 78.36094 25447 ft 469 kts 220°
2026-04-26 12:46 28.01777 78.33877 25876 ft 468 kts 220°
2026-04-26 12:47 27.99173 78.31659 26308 ft 467 kts 221°
2026-04-26 12:47 27.96581 78.29452 26747 ft 466 kts 221°
2026-04-26 12:47 27.93995 78.27252 27207 ft 464 kts 221°
2026-04-26 12:47 27.91421 78.25048 27670 ft 462 kts 223°
2026-04-26 12:48 27.89221 78.22459 28117 ft 452 kts 239°
2026-04-26 12:48 27.87820 78.19360 28558 ft 441 kts 256°
2026-04-26 12:48 27.87282 78.15988 29011 ft 432 kts 272°
2026-04-26 12:48 27.87603 78.12663 29495 ft 424 kts 287°
2026-04-26 12:49 27.88712 78.09599 29926 ft 419 kts 302°
2026-04-26 12:49 27.90419 78.06939 30309 ft 417 kts 308°
2026-04-26 12:49 27.92202 78.04355 30713 ft 416 kts 308°
2026-04-26 12:49 27.93954 78.01811 31119 ft 415 kts 308°
2026-04-26 12:50 27.95724 77.99228 31526 ft 414 kts 307°
2026-04-26 12:50 27.97487 77.96653 31922 ft 413 kts 307°
2026-04-26 12:50 27.99247 77.94083 32322 ft 413 kts 307°
2026-04-26 12:50 28.01005 77.91513 32720 ft 412 kts 307°
2026-04-26 12:51 28.02756 77.88952 33131 ft 411 kts 307°
2026-04-26 12:51 28.04499 77.86401 33554 ft 410 kts 307°
2026-04-26 12:51 28.06243 77.83844 33930 ft 409 kts 307°
2026-04-26 12:51 28.07979 77.81300 34261 ft 408 kts 306°
2026-04-26 12:52 28.09711 77.78761 34590 ft 407 kts 306°
2026-04-26 12:52 28.11438 77.76232 34924 ft 406 kts 306°
2026-04-26 12:52 28.13171 77.73695 35243 ft 405 kts 306°
2026-04-26 12:52 28.14887 77.71181 35550 ft 404 kts 306°
2026-04-26 12:53 28.16613 77.68654 35648 ft 406 kts 306°
2026-04-26 12:53 28.20093 77.63539 35674 ft 418 kts 306°
2026-04-26 12:54 28.23659 77.58280 35678 ft 421 kts 305°
2026-04-26 12:54 28.27224 77.53022 35675 ft 421 kts 305°
2026-04-26 12:55 28.30794 77.47757 35685 ft 421 kts 305°
2026-04-26 12:55 28.34361 77.42484 35687 ft 421 kts 305°
2026-04-26 12:56 28.37925 77.37206 35716 ft 421 kts 305°
2026-04-26 12:56 28.41465 77.31976 35713 ft 421 kts 306°
2026-04-26 12:57 28.45025 77.26702 35721 ft 420 kts 305°
2026-04-26 12:57 28.48579 77.21423 35700 ft 420 kts 305°
2026-04-26 12:58 28.53919 77.13484 35695 ft 422 kts 305°
2026-04-26 12:58 28.57585 77.08257 35692 ft 424 kts 310°
2026-04-26 12:59 28.61596 77.03330 35698 ft 425 kts 310°
2026-04-26 12:59 28.65607 76.98388 35718 ft 425 kts 310°
2026-04-26 13:00 28.69597 76.93475 35712 ft 425 kts 310°
2026-04-26 13:00 28.73615 76.88520 35707 ft 425 kts 310°
2026-04-26 13:01 28.76977 76.84370 35709 ft 425 kts 310°
2026-04-26 13:01 28.80979 76.79413 35711 ft 425 kts 310°
2026-04-26 13:02 28.84991 76.74450 35711 ft 425 kts 310°
2026-04-26 13:02 28.89001 76.69487 35729 ft 425 kts 310°
2026-04-26 13:03 28.92980 76.64550 35725 ft 425 kts 310°
2026-04-26 13:03 28.97008 76.59598 35719 ft 426 kts 314°
2026-04-26 13:04 28.99372 76.57554 35719 ft 431 kts 327°
2026-04-26 13:04 29.02128 76.56149 35709 ft 437 kts 339°
2026-04-26 13:04 29.05130 76.55487 35713 ft 444 kts 352°
2026-04-26 13:04 29.08237 76.55625 35700 ft 452 kts
2026-04-26 13:05 29.14390 76.57444 35695 ft 457 kts 11°
2026-04-26 13:05 29.20534 76.59394 35696 ft 458 kts 11°
2026-04-26 13:06 29.26691 76.61347 35692 ft 459 kts 10°
2026-04-26 13:06 29.32852 76.63292 35694 ft 459 kts 10°
2026-04-26 13:07 29.38982 76.65219 35699 ft 460 kts 10°
2026-04-26 13:07 29.45152 76.67167 35712 ft 460 kts 11°
2026-04-26 13:08 29.51317 76.69122 35704 ft 460 kts 11°
2026-04-26 13:08 29.57501 76.71032 35702 ft 457 kts
2026-04-26 13:09 29.60611 76.71291 35699 ft 446 kts 351°
2026-04-26 13:09 29.63634 76.70641 35693 ft 436 kts 336°
2026-04-26 13:09 29.66347 76.69167 35687 ft 428 kts 322°
2026-04-26 13:09 29.68615 76.67016 35683 ft 422 kts 309°
2026-04-26 13:10 29.70350 76.64322 35677 ft 417 kts 296°
2026-04-26 13:10 29.71451 76.61295 35681 ft 415 kts 284°
2026-04-26 13:10 29.72320 76.54715 35672 ft 416 kts 278°
2026-04-26 13:11 29.73104 76.48092 35665 ft 418 kts 278°
2026-04-26 13:11 29.73900 76.41451 35669 ft 419 kts 278°
2026-04-26 13:12 29.74675 76.34831 35671 ft 420 kts 278°
2026-04-26 13:12 29.75448 76.28173 35678 ft 420 kts 278°
2026-04-26 13:13 29.76229 76.21490 35688 ft 420 kts 278°
2026-04-26 13:13 29.77009 76.14826 35689 ft 421 kts 277°
2026-04-26 13:14 29.77773 76.08149 35679 ft 421 kts 277°
2026-04-26 13:14 29.78529 76.01458 35682 ft 422 kts 277°
2026-04-26 13:15 29.79287 75.94755 35685 ft 422 kts 277°
2026-04-26 13:15 29.80047 75.88054 35689 ft 422 kts 277°
2026-04-26 13:16 29.80802 75.81352 35689 ft 422 kts 277°
2026-04-26 13:16 29.81559 75.74645 35688 ft 422 kts 277°
2026-04-26 13:17 29.82648 75.68030 35689 ft 422 kts 292°
2026-04-26 13:17 29.84109 75.65100 35688 ft 424 kts 307°
2026-04-26 13:18 29.88865 75.61153 35693 ft 436 kts 337°
2026-04-26 13:18 29.91860 75.60455 35683 ft 445 kts 354°
2026-04-26 13:18 29.97905 75.62225 35660 ft 465 kts 28°
2026-04-26 13:19 30.00598 75.64320 35656 ft 468 kts 31°
2026-04-26 13:19 30.05948 75.68652 35655 ft 471 kts 31°
2026-04-26 13:20 30.11285 75.73019 35664 ft 472 kts 31°
2026-04-26 13:20 30.16685 75.77422 35674 ft 473 kts 31°
2026-04-26 13:21 30.22076 75.81794 35702 ft 473 kts 31°
2026-04-26 13:21 30.27466 75.86163 35703 ft 473 kts 31°
2026-04-26 13:22 30.32859 75.90543 35699 ft 473 kts 31°
2026-04-26 13:22 30.38210 75.94906 35696 ft 473 kts 31°
2026-04-26 13:23 30.43593 75.99300 35702 ft 473 kts 31°
2026-04-26 13:23 30.48970 76.03692 35707 ft 473 kts 31°
2026-04-26 13:24 30.54344 76.08087 35707 ft 473 kts 31°
2026-04-26 13:24 30.59728 76.12494 35713 ft 473 kts 31°
2026-04-26 13:25 30.65107 76.16910 35718 ft 473 kts 31°
2026-04-26 13:25 30.70471 76.21321 35719 ft 472 kts 31°
2026-04-26 13:26 30.75837 76.25733 35715 ft 472 kts 31°
2026-04-26 13:26 30.81196 76.30146 35729 ft 472 kts 30°
2026-04-26 13:27 30.86518 76.34541 35727 ft 471 kts 31°
2026-04-26 13:27 30.91856 76.38955 35729 ft 471 kts 30°
2026-04-26 13:28 30.97197 76.43375 35727 ft 470 kts 31°
2026-04-26 13:28 31.02558 76.47820 35725 ft 470 kts 31°
2026-04-26 13:29 31.07894 76.52248 35746 ft 470 kts 30°
2026-04-26 13:29 31.13217 76.56668 35749 ft 469 kts 30°
2026-04-26 13:30 31.18501 76.61060 35750 ft 469 kts 30°
2026-04-26 13:30 31.23808 76.65484 35775 ft 469 kts 30°
2026-04-26 13:31 31.29108 76.69909 35780 ft 468 kts 30°
2026-04-26 13:31 31.34404 76.74333 35776 ft 468 kts 30°
2026-04-26 13:32 31.39712 76.78775 35805 ft 469 kts 30°
2026-04-26 13:32 31.45024 76.83237 35826 ft 469 kts 30°
2026-04-26 13:33 31.50323 76.87681 35833 ft 468 kts 30°
2026-04-26 13:33 31.55631 76.92136 35835 ft 468 kts 30°
2026-04-26 13:34 31.60881 76.96551 35866 ft 467 kts 30°
2026-04-26 13:34 31.66197 77.01033 35881 ft 467 kts 30°
2026-04-26 13:35 31.71436 77.05461 35891 ft 466 kts 30°
2026-04-26 13:35 31.76697 77.09912 35961 ft 466 kts 30°
2026-04-26 13:36 31.81974 77.14380 35959 ft 468 kts 30°
2026-04-26 13:36 31.87247 77.18855 35986 ft 466 kts 30°
2026-04-26 13:37 31.92498 77.23302 36056 ft 465 kts 30°
2026-04-26 13:37 31.97725 77.27741 36120 ft 465 kts 30°
2026-04-26 13:38 32.02956 77.32196 36117 ft 464 kts 30°
2026-04-26 13:38 32.08175 77.36651 36088 ft 461 kts 31°
2026-04-26 13:39 32.13381 77.41102 36179 ft 462 kts 30°
2026-04-26 13:39 32.18553 77.45517 36188 ft 462 kts 30°
2026-04-26 13:40 32.23742 77.49952 36194 ft 460 kts 30°
2026-04-26 13:40 32.28918 77.54389 36210 ft 460 kts 30°
2026-04-26 13:41 32.34091 77.58838 36218 ft 461 kts 30°
2026-04-26 13:41 32.39401 77.63069 36240 ft 453 kts 21°
2026-04-26 13:42 32.45158 77.65765 36239 ft 445 kts 13°
2026-04-26 13:42 32.50996 77.68271 36232 ft 445 kts 13°
2026-04-26 13:43 32.56820 77.70777 36245 ft 445 kts 13°
2026-04-26 13:43 32.62636 77.73282 36238 ft 445 kts 13°
2026-04-26 13:44 32.68457 77.75801 36230 ft 443 kts 14°
2026-04-26 13:44 32.74220 77.78304 36222 ft 444 kts 13°
2026-04-26 13:45 32.80039 77.80819 36202 ft 444 kts 13°
2026-04-26 13:45 32.85860 77.83332 36223 ft 445 kts 13°
2026-04-26 13:46 32.91649 77.85846 35934 ft 442 kts 13°
2026-04-26 13:46 32.94288 77.86997 35704 ft 441 kts 14°
2026-04-26 13:46 32.96237 77.87846 35544 ft 441 kts 14°
2026-04-26 13:46 32.99080 77.89087 35310 ft 441 kts 13°
2026-04-26 13:47 33.02002 77.90360 35054 ft 441 kts 14°
2026-04-26 13:47 33.04891 77.91618 34816 ft 442 kts 14°
2026-04-26 13:47 33.07740 77.92857 34587 ft 442 kts 14°
2026-04-26 13:47 33.10622 77.94112 34356 ft 442 kts 14°
2026-04-26 13:48 33.13499 77.95368 34120 ft 441 kts 14°
2026-04-26 13:48 33.16393 77.96633 33865 ft 440 kts 14°
2026-04-26 13:48 33.19266 77.97891 33614 ft 440 kts 14°
2026-04-26 13:48 33.22136 77.99151 33343 ft 440 kts 14°
2026-04-26 13:49 33.25017 78.00410 32973 ft 441 kts 14°
2026-04-26 13:49 33.27966 78.01359 32579 ft 434 kts
2026-04-26 13:49 33.30955 78.01668 32317 ft 430 kts 355°
2026-04-26 13:49 33.33926 78.01399 32050 ft 425 kts 347°
2026-04-26 13:50 33.36776 78.00576 31200 ft 417 kts 338°
2026-04-26 13:50 33.39401 77.99217 30225 ft 407 kts 332°
2026-04-26 13:50 33.41891 77.97804 29321 ft 398 kts 334°
2026-04-26 13:50 33.44436 77.96435 28465 ft 404 kts 334°
2026-04-26 13:51 33.47018 77.95058 27555 ft 408 kts 334°
2026-04-26 13:51 33.49611 77.93687 26666 ft 401 kts 335°
2026-04-26 13:51 33.52096 77.92389 25939 ft 377 kts 335°
2026-04-26 13:51 33.54432 77.91179 25402 ft 353 kts 335°
2026-04-26 13:52 33.56610 77.90049 24979 ft 330 kts 334°
2026-04-26 13:52 33.58642 77.88977 24575 ft 311 kts 334°
2026-04-26 13:52 33.60594 77.87939 24013 ft 300 kts 334°
2026-04-26 13:52 33.62460 77.86925 23337 ft 295 kts 334°
2026-04-26 13:53 33.64340 77.85887 22441 ft 294 kts 334°
2026-04-26 13:53 33.66209 77.84855 21518 ft 296 kts 334°
2026-04-26 13:53 33.68042 77.83842 20990 ft 296 kts 334°
2026-04-26 13:53 33.69929 77.82797 20486 ft 302 kts 334°
2026-04-26 13:54 33.71856 77.81734 20006 ft 305 kts 334°
2026-04-26 13:54 33.73793 77.80691 19663 ft 303 kts 334°
2026-04-26 13:54 33.75707 77.79810 19378 ft 289 kts 341°
2026-04-26 13:55 33.79377 77.78868 18796 ft 256 kts 349°
2026-04-26 13:55 33.80571 77.78671 18586 ft 247 kts 350°
2026-04-26 13:55 33.84376 77.77788 17634 ft 235 kts 336°
2026-04-26 13:56 33.85781 77.76877 17269 ft 221 kts 324°
2026-04-26 13:56 33.86933 77.75837 16987 ft 212 kts 321°
2026-04-26 13:56 33.88124 77.74791 16625 ft 213 kts 323°
2026-04-26 13:56 33.89347 77.73765 16308 ft 215 kts 324°
2026-04-26 13:57 33.90570 77.72756 16150 ft 211 kts 325°
2026-04-26 13:57 33.91777 77.71770 15981 ft 207 kts 326°
2026-04-26 13:57 33.92959 77.70874 15862 ft 201 kts 328°
2026-04-26 13:57 33.94155 77.70021 15711 ft 198 kts 330°
2026-04-26 13:58 33.95370 77.69239 15727 ft 199 kts 333°
2026-04-26 13:58 33.96612 77.68471 15780 ft 200 kts 331°
2026-04-26 13:58 33.97831 77.67691 15883 ft 197 kts 331°
2026-04-26 13:58 33.99062 77.66980 15986 ft 195 kts 334°
2026-04-26 13:59 34.00263 77.66267 15938 ft 190 kts 326°
2026-04-26 13:59 34.01290 77.65315 15852 ft 185 kts 320°
2026-04-26 13:59 34.02282 77.64342 15684 ft 183 kts 319°
2026-04-26 14:00 34.05119 77.61469 15099 ft 179 kts 318°
2026-04-26 14:00 34.06075 77.60500 14920 ft 180 kts 318°
2026-04-26 14:00 34.06713 77.59859 14822 ft 180 kts 320°
2026-04-26 14:01 34.08050 77.58648 14835 ft 182 kts 324°
2026-04-26 14:01 34.09087 77.57783 14525 ft 179 kts 323°
2026-04-26 14:01 34.10084 77.56955 14304 ft 175 kts 327°
2026-04-26 14:01 34.11166 77.56216 14195 ft 179 kts 332°
2026-04-26 14:02 34.12295 77.55556 14261 ft 181 kts 334°
2026-04-26 14:02 34.13448 77.54940 14373 ft 182 kts 335°
2026-04-26 14:02 34.14604 77.54306 14455 ft 183 kts 329°
2026-04-26 14:02 34.15650 77.53416 14389 ft 190 kts 314°
2026-04-26 14:03 34.16515 77.52185 14068 ft 195 kts 307°
2026-04-26 14:03 34.17321 77.50870 13730 ft 194 kts 303°
2026-04-26 14:03 34.17927 77.49436 13278 ft 192 kts 279°
2026-04-26 14:03 34.17635 77.47941 12696 ft 186 kts 228°
2026-04-26 14:04 34.16551 77.47175 12404 ft 178 kts 199°
2026-04-26 14:04 34.15371 77.46745 12243 ft 176 kts 194°
2026-04-26 14:04 34.14171 77.46721 12132 ft 174 kts 163°
2026-04-26 14:04 34.13168 77.47511 12077 ft 175 kts 130°
2026-04-26 14:05 34.12446 77.48697 11800 ft 176 kts 120°
2026-04-26 14:05 34.12239 77.50128 11264 ft 185 kts 73°
2026-04-26 14:05 34.12669 77.51602 10854 ft 187 kts 62°
2026-04-26 14:05 34.13156 77.53082 10629 ft 191 kts 66°
2026-04-26 14:06 34.13549 77.54433 10657 ft 134 kts 69°
2026-04-26 14:06 34.13771 77.55210 10755 ft 77 kts 70°
2026-04-26 14:06 34.13916 77.55703 10816 ft 46 kts 73°
2026-04-26 14:06 34.13972 77.55922 10855 ft 20 kts 71°
2026-04-26 14:07 34.14020 77.56068 10871 ft 13 kts 36°
2026-04-26 14:07 34.14049 77.55966 10859 ft 22 kts 269°
2026-04-26 14:07 34.14051 77.55735 10828 ft 24 kts 270°
2026-04-26 14:07 34.14052 77.55545 10810 ft 21 kts 270°
2026-04-26 14:08 34.14107 77.55478 10812 ft 14 kts 336°
2026-04-26 14:08 34.14158 77.55458 10825 ft 0 kts 357°
2026-04-26 14:08 34.14168 77.55468 10826 ft 3 kts 50°
2026-04-26 14:09 34.14179 77.55492 10825 ft 3 kts 53°
2026-04-26 14:09 34.14194 77.55492 10825 ft 3 kts 339°
2026-04-26 14:09 34.14200 77.55488 10826 ft 0 kts 332°